Regional Weather Roundup
Issued by NWS

Home | Current Version | Previous Version | Text Only | Print | Product List | Glossary On
Versions: 1 2 3 4 5 6 7 8 9 10 11 12 13 14 15 16 17 18 19 20 21 22 23 24 25 26 27 28 29 30 31 32 33 34 35 36 37 38 39 40 41 42 43 44 45 46 47 48 49 50
000
ASUS43 KTOP 220859
RWRKS

WEATHER ROUNDUP FOR KANSAS
NATIONAL WEATHER SERVICE GOODLAND KS
300 AM CST WED NOV 22 2017

NOTE:  "FAIR" INDICATES FEW OR NO CLOUDS BELOW 12,000 FEET WITH NO
SIGNIFICANT WEATHER AND/OR OBSTRUCTIONS TO VISIBILITY.

KSZ001>006-013>018-027>032-041>047-221000-
NORTHWEST KANSAS

CITY           SKY/WX    TMP DP  RH WIND       PRES   REMARKS
GOODLAND       CLOUDY    29  22  75 S13       30.27F WCI  19
HAYS           CLOUDY    19  12  74 CALM      30.41R
HILL CITY      CLOUDY    20  15  81 S5        30.37F
RUSSELL        CLOUDY    22  14  71 CALM      30.39F
$$

KSZ061>065-074>080-084>089-221000-
SOUTHWEST KANSAS

CITY           SKY/WX    TMP DP  RH WIND       PRES   REMARKS
DODGE CITY     CLOUDY    21  14  74 SW8       30.38R
GARDEN CITY    CLOUDY    23  17  78 SW6       30.37F
GREAT BEND     CLOUDY    18  12  77 W3        30.41S
LIBERAL        CLOUDY    23  18  81 W6        30.39S
$$

KSZ066>073-081>083-090>101-221000-
SOUTHEAST KANSAS

CITY           SKY/WX    TMP DP  RH WIND       PRES   REMARKS
CHANUTE        CLOUDY    24  15  68 NW5       30.42R
COFFEYVILLE    CLOUDY    25  18  74 N8        30.43R
HUTCHINSON     CLOUDY    22  13  68 NW3       30.42R
MEDICINE LODGE   N/A     23  13  65 N3        30.41S
NEWTON         CLOUDY    20  13  74 N7        30.42R
PARSONS        CLOUDY    24  17  74 CALM      30.43R
WICHITA INTL   CLOUDY    26  15  63 N8        30.42R
WICHITA JABRA  CLOUDY    20  14  77 N7        30.42R
WICHITA MCCONL CLOUDY    24  13  61 NE8       30.41R
WINFIELD       CLOUDY    22  15  75 N7        30.42F
$$

KSZ007>012-019>026-033>040-048>060-102>105-221000-
NORTHEAST KANSAS

CITY           SKY/WX    TMP DP  RH WIND       PRES   REMARKS
CONCORDIA      CLOUDY    17  12  80 W6        30.42S
EMPORIA        CLOUDY    20  12  71 N7        30.42R
LAWRENCE       CLOUDY    20  14  77 NW6       30.44S
MANHATTAN      CLOUDY    20  13  74 W8        30.45S
OLATHE IND     CLOUDY    21  14  74 NW7       30.42S
OLATHE EXE     CLOUDY    23  15  71 N7        30.41R
SALINA         CLOUDY    21  13  71 NW5       30.44S
TOPEKA BILLARD CLOUDY    19  13  77 NW3       30.44S
TOPEKA FORBES  CLOUDY    21  13  71 N3        30.42S
$$




USA.gov is the U.S. government's official web portal to all federal, state and local government web resources and services.